Home   Weather   Punta Arenas   Past weeks

Flag for Chile Past Weather in Punta Arenas, Chile — Yesterday and Last 2 Weeks

Now
48 °F

Passing clouds.


Feels Like: 41 °F
Forecast: 45 / 56 °F
Wind: 22 mph from West

Location: Punta Arenas Airport

Current Time: Dec 10, 2016 at 9:38:07 pm

Latest Report: Dec 10, 2016 at 9:00 pm


Visibility: N/A

Pressure: 29.36 "Hg

Humidity: 71%

Dew Point: 39 °F

Location of Punta ArenasLocation

Past Weather in Punta Arenas — Graph

°F

Punta Arenas Temperature Yesterday

Maximum temperature yesterday: 57 °F (at 5:00 pm)
Minimum temperature yesterday: 45 °F (at 12:00 am)
Average temperature yesterday: 49 °F

High & Low Weather Summary for the Past Weeks

 TemperatureHumidityPressure
High66 °F (Nov 26, 3:00 pm)94% (Dec 5, 9:00 am)29.95 "Hg (Dec 5, 9:00 am)
Low34 °F (Nov 26, 4:00 am)31% (Nov 30, 3:00 pm)29.09 "Hg (Dec 1, 11:00 am)
Average51 °F64%29.63 "Hg
* Reported Nov 25 8:00 pm — Dec 10 8:00 pm, Punta Arenas, Weather by CustomWeather, © 2016

Note: Actual official high and low records may vary slightly from our data, if they occured in-between our weather recording intervals... More about our weather records

Advertising

Punta Arenas Weather History for the Previous 24 Hours

Scroll right to see more
 ConditionsComfort  
Time TempWeatherWind HumidityBarometerVisibility
8:00 pm
Sat, Dec 10
52 °FScattered clouds.26 mph67%29.33 "HgN/A
7:00 pm54 °FScattered clouds.29 mph54%29.36 "HgN/A
6:00 pm52 °FPartly sunny.29 mph67%29.36 "HgN/A
5:00 pm55 °FBroken clouds.26 mph51%29.33 "HgN/A
4:00 pm54 °FBroken clouds.31 mph51%29.33 "HgN/A
3:00 pm54 °FBroken clouds.23 mph54%29.33 "HgN/A
2:00 pm52 °FBroken clouds.23 mph62%29.33 "HgN/A
1:00 pm52 °FBroken clouds.23 mph54%29.30 "HgN/A
12:00 pm50 °FBroken clouds.24 mph58%29.30 "HgN/A
11:00 am50 °FPartly sunny.23 mph54%29.30 "HgN/A
10:00 am52 °FPartly sunny.21 mph44%29.30 "HgN/A
9:00 am50 °FPassing clouds.18 mph50%29.33 "HgN/A
8:00 am46 °FPassing clouds.14 mph66%29.33 "HgN/A
7:00 am41 °FScattered clouds.6 mph87%29.33 "HgN/A
6:00 am41 °FPassing clouds.7 mph81%29.30 "HgN/A
5:00 am41 °FPassing clouds.8 mph87%29.33 "HgN/A
4:00 am39 °FPassing clouds.8 mph87%29.33 "HgN/A
3:00 am39 °FPassing clouds.8 mph87%29.33 "HgN/A
2:00 am43 °FPassing clouds.9 mph81%29.33 "HgN/A
1:00 am45 °FPartly cloudy.6 mph76%29.36 "HgN/A
12:00 am46 °FPartly cloudy.14 mph66%29.36 "HgN/A
11:00 pm
Fri, Dec 9
46 °FPartly cloudy.13 mph62%29.36 "HgN/A
10:00 pm48 °FPassing clouds.16 mph58%29.36 "HgN/A
9:00 pm48 °FScattered clouds.8 mph76%29.36 "HgN/A
Weather by CustomWeather, © 2016

See weather overviewHow to use our weather pages